User: anonymous   Login
Location: Gaast
(52.9002°N, 5.8891°E)
Time: 21:07:03
(UTC+00:00)
Language:

Cosmos 44 Rocket - Orbit

View from above orbital plane
View from above orbital plane
View from above satellite
View from above satellite

Ground track
Ground track

The orbit is defined by the following mean orbital elements,

1 00877U          26019.69216780 +.00000000 +00000-0 +80000-4 0 00004
2 00877  65.0771 114.8816 0076989 307.8676  51.5476 14.61309475    03
Epoch (UTC): 19 January 2026 16:36:43
Eccentricity: 0.0076989
inclination: 65.0771°
perigee height: 635 km
apogee height: 743 km
right ascension of ascending node: 114.8816°
argument of perigee: 307.8676°
revolutions per day: 14.61309475
mean anomaly at epoch: 51.5476°

The dashed part of the orbit path shows where the satellite is in the earth's shadow,  

DLR